Goderich, Ontario

4:02 AM EDT on October 17, 2017 (GMT -0400)
Goderich

Weather History for CWGD - November, 2012

Change the Weather History Date:

Sunday, November 18, 2012

  Actual Average (KP58) Record (KP58)
Temperature  
Mean Temperature 42 °F -  
Max Temperature 53 °F 43 °F 66 °F (2016)
Min Temperature 31 °F 33 °F 17 °F (2014)
Degree Days  
Heating Degree Days 23    
Moisture  
Dew Point 34 °F    
Average Humidity 76    
Maximum Humidity 100    
Minimum Humidity 45    
Precipitation  
Precipitation 0.00 in - - ()
Sea Level Pressure  
Sea Level Pressure 30.53 in    
Wind  
Wind Speed 7 mph ()    
Max Wind Speed 10 mph    
Max Gust Speed -    
Averages and records for this station are not official NWS values.
T = Trace of Precipitation, MM = Missing Value Source: Averaged Metar Reports

Daily Weather History Graph

Daily Weather History Graph

Search for Another Location

Airport or City:

Trip Planner

Search our weather history database for the weather conditions in past years. The results will help you decide how hot, cold, wet, or windy it might be!

Date:

Astronomy

Nov. 18, 2012 Rise Set
Actual Time 7:25 AM EST 4:58 PM EST
Civil Twilight 6:54 AM EST 5:29 PM EST
Nautical Twilight 6:19 AM EST 6:04 PM EST
Astronomical Twilight 5:45 AM EST 6:38 PM EST
Moon 11:49 AM EST (11/18) 10:19 PM EST (11/18)
Length of Visible Light 10h 35m
Length of Day
9h 32m
Waxing Crescent, 30% of the Moon is Illuminated
Nov 18
Waxing Crescent
Nov 20
First Quarter
Nov 28
Full
Dec 6
Last Quarter
Dec 13
New

Hourly Weather History & Observations

Time (EST) Temp. Windchill Dew Point Humidity Pressure Visibility Wind Dir Wind Speed Gust Speed Precip Events Conditions
12:00 AM 36.5 °F 31.0 °F 31.3 °F 81% 30.58 in - SE 6.9 mph - N/A   Unknown
1:00 AM 37 °F - 35 °F 91% 30.57 in - SE 5.8 mph - -  
1:00 AM 36.9 °F 32.2 °F 35.2 °F 94% 30.57 in - SE 5.8 mph - N/A   Unknown
2:00 AM 35.2 °F 31.2 °F 35.2 °F 100% 30.58 in - ESE 4.6 mph - N/A   Unknown
3:00 AM 35.4 °F 29.0 °F 34.5 °F 97% 30.58 in - ESE 8.1 mph - N/A   Unknown
4:00 AM 35.2 °F 29.5 °F - N/A% 30.55 in - ESE 6.9 mph - N/A   Unknown
5:00 AM 33.6 °F 25.6 °F - N/A% 30.56 in - ESE 10.4 mph - N/A   Unknown
6:00 AM 33.8 °F 26.4 °F - N/A% 30.57 in - ESE 9.2 mph - N/A   Unknown
7:00 AM 35 °F - 33 °F 88% 30.57 in - ESE 8.1 mph - -  
7:00 AM 35.1 °F 28.6 °F 31.3 °F 86% 30.57 in - ESE 8.1 mph - N/A   Unknown
8:00 AM 35.1 °F 28.6 °F 31.8 °F 88% 30.57 in - ESE 8.1 mph - N/A   Unknown
9:00 AM 36.5 °F 29.7 °F 31.5 °F 82% 30.57 in - ESE 9.2 mph - N/A   Unknown
10:00 AM 40.1 °F 34.1 °F 34.5 °F 80% 30.56 in - ESE 9.2 mph - N/A   Unknown
11:00 AM 44.4 °F 40.0 °F 36.1 °F 73% 30.56 in - ESE 8.1 mph - N/A   Unknown
12:00 PM 48.2 °F - 36.7 °F 64% 30.53 in - SE 9.2 mph - N/A   Unknown
1:00 PM 51 °F - 36 °F 45% 30.51 in - SSE 8.1 mph - -  
1:00 PM 50.7 °F - 36.0 °F 57% 30.51 in - SSE 8.1 mph - N/A   Unknown
2:00 PM 52.3 °F - 36.0 °F 54% 30.49 in - SSE 6.9 mph - N/A   Unknown
3:00 PM 50.4 °F - 35.2 °F 56% 30.48 in - ESE 6.9 mph - N/A   Unknown
4:00 PM 51.4 °F - 36.7 °F 57% 30.47 in - East 6.9 mph - N/A   Unknown
5:00 PM 47.5 °F - 33.4 °F 58% 30.48 in - ESE 5.8 mph - N/A   Unknown
6:00 PM 36.1 °F 32.3 °F 30.7 °F 81% 30.48 in - East 4.6 mph - N/A   Unknown
7:00 PM 34 °F - 30 °F 79% 30.49 in - East 5.8 mph - -  
7:00 PM 34.2 °F 29.0 °F 29.8 °F 84% 30.49 in - East 5.8 mph - N/A   Unknown
8:00 PM 40.6 °F 35.4 °F 33.4 °F 75% 30.48 in - ESE 8.1 mph - N/A   Unknown
9:00 PM 39.0 °F 32.8 °F 31.6 °F 75% 30.48 in - ESE 9.2 mph - N/A   Unknown
10:00 PM 37.0 °F 30.4 °F 31.8 °F 81% 30.47 in - ESE 9.2 mph - N/A   Unknown
11:00 PM 37.0 °F 31.0 °F 31.3 °F 80% 30.45 in - ESE 8.1 mph - N/A   Unknown